Theta_e
315 316 315 316 320 322 324 325 326 326 325 326 329 330 328 329 336 341 342 342 341 341 342 342 342 343 343 343 343 343 344 344 343 343 344 345 345 344 343 344 345 346 346 347
316 316 319 320 323 322 323 325 324 327 328 335 336 335 337 337 340 341 341 342 342 342 342 343 343 343 344 344 343 344 344 344 344 344 344 345 345 345 343 344 345 346 346 347
315 318 321 323 324 325 333 337 336 330 333 338 340 340 340 342 350 346 342 341 341 342 343 343 343 343 344 344 344 344 345 345 345 345 345 345 345 346 344 344 344 344 347 349
317 320 322 326 326 332 336 333 333 336 337 337 339 338 340 349 350 354 355 353 344 339 340 342 342 342 343 344 345 345 345 345 345 345 344 344 345 344 344 344 342 346 348 352
318 317 324 329 323 325 330 335 329 330 334 336 338 341 347 345 346 347 350 351 353 350 339 339 341 341 342 344 345 345 346 346 346 345 344 343 343 341 341 341 344 347 350 356
316 318 321 327 321 321 322 338 325 325 329 333 339 344 348 344 347 352 352 351 353 350 344 340 339 341 341 343 345 346 347 346 345 344 343 341 337 337 339 344 346 350 352 358
313 318 323 321 320 322 333 333 322 322 326 332 337 334 335 340 346 354 355 353 352 349 344 341 340 341 344 344 345 347 346 345 343 339 336 335 337 341 344 346 348 351 355 359
312 317 324 318 323 329 324 322 322 323 324 328 328 330 332 336 344 352 355 355 349 346 346 345 344 344 345 346 347 346 344 339 338 341 342 343 344 345 346 347 348 351 357 360
314 322 319 318 318 319 319 321 322 324 323 323 324 328 329 333 340 346 351 354 355 348 345 346 347 347 347 348 344 341 340 342 344 345 345 346 346 346 346 347 348 350 357 360
320 318 318 317 318 319 321 322 322 322 321 322 324 324 325 328 337 345 348 351 353 355 350 346 346 347 347 348 347 345 344 346 346 346 346 346 346 346 347 347 348 351 356 361
316 317 317 317 316 318 320 321 321 321 320 319 320 321 321 321 333 340 347 350 352 354 355 356 356 348 347 347 347 347 347 347 347 347 348 349 349 350 351 351 352 353 354 360
317 313 314 316 315 316 320 320 320 321 321 318 318 318 319 318 322 336 339 344 349 351 353 354 356 355 353 353 354 352 352 353 353 353 353 351 351 352 355 357 357 356 358 362
313 312 314 315 315 316 318 319 320 320 320 318 317 317 317 317 317 324 334 336 343 350 353 355 356 357 355 351 349 350 349 347 344 343 343 344 348 354 358 359 360 360 362 364
312 314 315 315 315 316 318 320 319 320 318 317 317 318 318 318 318 318 320 326 331 343 350 354 356 359 360 357 355 354 354 354 353 352 351 352 355 359 361 362 362 362 363 363
312 312 313 314 314 314 316 319 321 320 319 318 318 318 319 319 320 321 321 321 326 333 341 349 351 356 359 360 361 361 360 359 357 357 358 358 358 361 362 363 362 364 363 362
311 310 311 311 312 313 313 315 316 317 319 319 319 319 319 319 320 320 321 323 322 326 330 338 344 346 354 359 361 362 361 362 361 358 357 356 356 360 361 365 363 364 363 361
309 308 309 309 309 310 311 312 313 315 317 319 319 319 319 320 320 320 320 320 322 322 324 327 333 338 342 351 354 354 354 357 358 358 358 356 355 354 355 353 353 358 362 360
306 306 307 306 308 308 309 310 310 313 316 315 318 319 319 320 320 319 319 319 319 321 321 321 323 326 336 339 344 351 354 354 355 355 357 357 357 357 358 356 355 356 353 359
306 306 306 307 307 307 307 307 308 311 314 315 316 318 317 317 318 318 318 318 318 318 318 320 320 321 324 327 332 339 347 349 351 352 352 355 356 355 356 358 358 356 355 354
301 301 302 303 305 305 306 306 307 308 310 311 312 311 312 314 314 315 315 315 315 316 317 318 318 319 320 320 324 327 329 334 343 349 351 353 350 352 352 355 354 354 354 354
301 300 300 299 299 299 299 300 302 305 306 307 308 307 308 309 310 310 311 312 312 314 315 315 316 317 318 318 319 320 324 326 327 334 345 347 348 349 350 352 353 352 351 349
305 303 301 300 300 299 299 299 300 302 304 304 305 305 306 306 307 306 307 308 309 309 311 312 314 315 316 317 318 318 319 320 326 328 332 340 346 349 348 350 350 351 350 349
305 306 305 303 301 300 299 300 299 300 300 300 300 300 301 301 301 303 305 307 307 308 308 308 311 313 315 315 316 317 319 319 320 321 328 331 335 342 345 346 347 348 350 349
305 303 304 304 303 302 301 299 299 299 299 299 300 300 299 299 299 299 299 300 305 307 308 308 309 310 311 313 314 316 318 321 322 322 322 327 334 335 338 339 344 345 346 350
301 301 301 302 302 302 302 302 300 299 299 299 299 299 300 299 299 299 299 299 299 299 303 306 308 309 310 310 312 313 315 317 320 323 325 326 329 334 337 339 341 342 343 344
301 301 300 300 301 301 302 302 302 301 300 301 301 299 299 299 299 298 298 297 298 298 299 300 301 303 305 308 310 311 312 314 316 318 320 322 325 329 332 335 338 340 341 342
297 298 298 299 299 300 300 300 300 300 301 300 299 299 299 299 299 299 298 298 297 298 298 299 301 299 300 302 305 307 309 311 312 313 315 317 319 322 326 328 330 335 337 338
Wind_Speed
9 12 8 8 9 5 8 8 15 14 10 13 12 14 18 17 13 10 14 20 26 29 28 30 30 29 28 28 31 31 32 33 31 27 27 26 23 19 18 18 16 14 16 14
6 10 6 10 9 9 8 5 9 6 7 6 18 14 13 18 15 9 15 20 24 29 29 28 28 27 25 26 27 27 28 29 30 30 27 24 23 22 19 18 15 15 14 12
5 4 6 8 10 8 6 4 3 6 2 14 15 16 19 22 17 9 6 11 19 25 27 24 23 23 24 24 25 26 25 26 25 26 25 25 24 24 22 18 15 14 13 11
4 2 8 4 5 1 11 7 6 7 10 13 17 19 18 11 13 12 10 4 9 21 25 28 23 21 22 24 25 25 26 26 25 25 25 25 25 24 22 18 17 14 13 10
4 9 2 5 3 3 1 4 10 11 12 16 19 15 5 15 14 13 14 12 7 11 24 26 26 24 22 24 25 26 27 28 27 25 25 25 24 23 20 18 17 14 13 10
3 7 10 5 6 5 2 5 13 14 14 17 17 6 3 20 18 14 11 10 6 6 11 21 24 26 26 27 27 27 28 28 26 24 24 23 22 20 18 17 15 14 12 11
9 5 2 7 10 2 7 3 14 15 15 14 5 6 15 14 12 11 11 7 2 2 6 11 16 22 25 27 27 26 25 25 23 23 22 21 21 20 18 17 17 15 13 12
7 6 7 13 3 5 4 6 10 13 13 10 10 10 10 12 13 13 13 8 3 2 9 14 16 18 21 22 25 25 26 24 24 22 22 22 20 19 19 18 17 17 16 15
5 2 4 7 11 4 3 5 9 10 12 12 14 16 15 15 15 15 15 14 10 6 8 14 17 18 20 23 24 25 25 24 21 20 19 18 18 19 19 19 20 20 18 19
4 3 6 12 10 8 7 9 10 11 15 20 19 18 19 19 20 18 16 17 15 12 12 12 15 18 18 19 23 23 22 20 18 18 18 18 19 19 20 20 21 21 22 23
1 4 5 9 13 11 9 10 13 15 19 22 23 23 22 22 24 23 18 17 16 15 17 13 10 16 18 19 20 21 19 18 18 18 18 18 19 20 20 19 18 17 20 21
2 4 4 7 10 12 10 11 14 13 16 19 21 21 21 26 26 23 23 20 19 17 17 15 13 9 12 17 18 18 20 19 18 17 18 18 18 17 17 15 15 15 15 12
2 1 2 7 6 11 11 12 14 15 15 18 21 22 23 24 24 25 24 24 24 23 21 18 17 10 11 14 16 16 15 15 15 14 13 13 15 16 17 17 17 16 17 19
7 5 6 13 7 11 9 11 15 16 15 17 18 21 23 24 23 24 25 23 21 19 20 19 15 15 11 13 13 13 12 11 10 9 8 9 10 13 15 17 19 20 20 23
12 12 8 7 10 12 9 6 8 15 16 15 16 19 20 22 23 23 22 20 19 20 17 18 17 14 14 15 14 12 9 7 7 6 5 5 7 10 13 16 19 18 20 24
11 12 12 12 11 12 12 12 10 10 12 13 13 14 15 16 17 19 20 21 22 23 21 18 13 17 15 13 10 11 9 5 4 4 2 1 1 3 6 11 14 17 22 25
13 15 12 11 11 9 11 10 10 9 7 9 9 10 8 10 11 14 17 18 18 19 19 18 17 15 17 10 4 4 6 3 5 6 5 4 4 7 8 10 14 17 24 27
14 12 11 9 8 7 9 10 10 9 11 9 8 8 8 9 11 12 12 13 12 11 14 16 17 17 14 10 6 5 2 2 2 4 7 8 8 11 12 17 21 21 18 23
19 21 19 16 12 10 10 11 11 9 8 10 10 11 10 10 10 11 11 12 11 10 11 12 13 13 12 10 8 5 1 2 2 5 6 7 8 9 15 17 19 20 22 23
22 23 23 23 22 21 20 19 17 15 13 11 11 10 10 11 11 10 11 13 16 15 14 13 13 10 8 9 9 7 6 3 2 1 4 6 10 9 11 13 15 17 18 22
21 22 24 25 26 25 24 21 20 22 20 18 16 17 17 16 13 12 12 12 13 11 10 10 9 10 9 8 9 10 9 8 7 6 6 5 4 6 9 11 12 15 15 18
12 14 16 19 21 23 25 26 24 22 20 20 20 19 20 22 20 16 18 17 16 16 13 12 12 11 10 10 10 9 9 9 9 8 7 6 7 5 10 13 14 16 16 17
8 7 8 10 13 15 17 21 22 24 24 24 24 23 23 22 22 20 19 22 19 17 17 17 17 15 12 11 10 10 10 9 9 10 10 10 9 12 13 13 18 20 21 17
4 6 5 5 6 7 9 12 14 16 17 18 20 21 21 21 20 23 21 21 20 17 16 17 18 18 16 15 13 12 11 11 10 10 10 11 11 12 14 18 21 19 22 25
9 9 10 9 7 4 3 4 6 8 10 12 15 17 17 18 20 21 23 23 23 23 20 19 17 16 16 16 16 16 15 15 14 13 11 12 13 12 13 15 15 19 22 21
7 8 8 7 7 8 3 3 4 5 5 6 7 10 12 14 17 19 21 21 22 25 22 20 20 18 16 15 15 13 14 15 14 16 14 13 12 14 13 12 13 17 20 24
8 8 7 6 6 6 8 10 11 10 7 4 5 9 10 11 12 16 19 22 24 24 23 21 18 21 20 19 16 15 13 13 13 15 16 16 16 14 14 14 11 11 15 21
Wind_Direction
281 281 270 268 273 252 222 238 229 237 225 268 316 319 313 315 315 230 210 196 197 202 203 211 213 212 217 218 217 220 220 219 217 220 223 224 226 233 235 239 249 263 273 281
287 291 267 263 263 259 250 260 263 264 262 3 319 318 340 354 339 267 220 205 202 203 203 206 208 207 209 215 215 216 219 217 216 222 226 225 223 225 227 234 243 254 264 267
256 343 306 255 248 231 130 78 296 239 350 334 318 330 333 336 339 360 274 233 216 214 209 206 207 210 210 209 211 209 207 210 212 215 216 218 218 222 224 229 235 242 249 250
270 297 231 73 53 190 124 73 14 320 328 324 308 304 305 338 337 334 359 332 234 227 229 222 208 205 205 208 206 203 201 202 202 207 210 214 216 218 222 223 228 233 236 237
249 213 16 226 32 61 305 95 24 347 340 334 322 311 221 346 347 339 335 333 313 245 229 231 221 210 202 204 201 199 197 196 197 201 207 210 212 213 215 215 224 227 229 226
284 227 212 88 341 347 272 189 11 354 343 337 331 218 81 346 346 340 333 322 328 276 217 218 223 221 204 200 198 194 191 189 192 198 206 207 205 206 206 216 221 221 221 215
235 268 224 11 325 224 198 71 339 346 346 342 348 330 315 340 353 1 356 340 328 239 193 193 207 217 207 195 189 183 180 184 188 193 193 193 197 201 208 215 220 219 214 208
216 239 217 6 155 222 21 344 347 358 9 10 2 5 4 4 15 22 32 34 59 172 192 189 192 196 197 186 176 176 172 178 180 181 188 195 200 206 214 218 221 220 212 202
235 1 58 64 78 49 2 356 13 26 31 47 32 30 24 25 35 40 45 47 59 91 163 172 172 177 182 178 171 174 167 174 182 189 197 203 210 215 220 223 224 221 214 208
188 178 101 75 74 51 45 65 63 54 56 59 50 36 32 34 41 54 59 62 67 87 121 144 165 172 176 177 178 180 179 182 189 197 204 209 215 222 228 229 228 222 217 209
260 164 217 62 44 34 49 70 72 63 66 66 59 46 36 34 44 49 58 67 70 80 96 111 139 162 170 173 178 179 180 188 194 201 205 212 218 224 230 232 235 236 225 221
146 8 351 51 21 24 33 40 64 59 59 63 62 53 44 41 42 49 49 50 57 64 76 87 94 101 151 163 171 174 177 183 191 198 207 215 223 228 227 227 221 216 224 229
49 331 21 9 46 22 26 46 62 57 61 69 63 58 50 45 43 47 51 47 48 53 56 69 94 142 133 147 154 163 177 183 188 199 207 211 212 215 218 212 206 194 206 217
52 116 62 37 12 17 26 44 56 57 60 68 65 60 53 47 43 44 44 42 40 48 56 63 67 72 105 127 140 149 153 158 163 173 182 195 205 209 217 222 207 194 202 219
61 66 58 34 35 34 33 43 42 48 45 58 60 56 51 46 44 43 45 46 42 45 47 64 65 70 80 116 129 130 136 150 155 164 179 201 215 225 220 227 224 214 212 214
64 57 46 36 20 26 30 30 35 25 36 36 54 61 58 52 47 43 43 42 43 41 36 42 49 43 57 91 113 132 125 125 140 145 135 89 340 244 247 235 239 236 226 216
54 45 41 32 22 16 20 31 29 17 19 31 44 53 57 59 51 43 39 38 41 43 40 37 37 37 49 55 86 125 160 161 186 212 204 213 223 255 250 258 260 246 237 225
51 55 44 36 32 24 26 22 29 31 30 32 41 53 40 43 44 42 38 29 26 34 38 41 40 34 30 26 30 57 97 190 224 238 234 243 235 244 257 259 252 247 241 237
54 57 57 58 58 53 48 35 35 40 46 43 43 44 34 37 36 30 24 17 14 17 18 28 35 35 33 28 20 13 57 37 239 234 250 258 248 255 252 258 262 259 251 241
60 63 66 65 63 61 58 55 54 53 50 49 49 45 40 32 24 20 15 14 13 4 358 357 11 355 1 14 20 27 18 349 257 304 307 289 269 250 257 268 264 262 256 260
64 63 65 64 63 61 57 54 53 54 52 52 53 49 43 33 26 18 15 11 3 1 0 355 341 336 333 336 348 353 3 7 356 337 272 288 325 289 273 279 267 261 265 274
70 66 62 61 58 55 55 55 55 56 58 55 51 48 48 45 41 36 33 26 18 11 7 358 351 347 340 333 324 318 324 338 353 348 321 289 270 282 288 281 273 272 271 276
61 53 57 58 60 57 52 53 53 54 56 55 54 53 49 44 39 33 27 32 23 19 19 13 10 357 345 341 332 324 319 312 314 322 333 315 291 272 270 278 274 270 269 268
50 30 39 38 40 49 49 50 49 47 45 44 49 49 45 43 38 39 30 32 26 31 28 16 14 8 7 2 1 352 338 327 319 314 316 317 318 292 292 273 268 276 270 266
77 62 49 33 11 352 9 28 36 34 41 46 40 36 38 42 37 31 29 27 25 26 22 19 18 13 16 15 17 12 2 357 347 328 325 327 318 315 299 292 274 260 267 279
35 27 29 23 18 18 355 320 325 328 353 7 15 26 29 28 28 28 29 24 21 23 20 16 13 9 13 17 13 7 1 352 343 350 339 335 328 326 317 302 283 272 268 261
15 9 16 19 17 8 2 359 353 344 301 290 337 354 7 16 16 14 16 18 18 19 14 11 11 10 8 10 9 8 5 353 346 344 344 342 343 331 328 331 311 275 260 257